Погода в Фрайбургу

Бразилия     27°05′58″S   50°51′44″W
темп.,
°C
ветер,
м/с
пор.,
м/с
влажн.,
%
обл.,
%
осадки,
мм/ч
давл.,
гПа
погр.,
м
26 февраля, пт
пт2600:00+15всв210925 0.0 1015518
03:00+16в288719 0.0 1015647
06:00+14в149579 0.0 1015158
09:00+20в266949 0.0 1016846
12:00+24всв35537 0.0 10151147
15:00+26в34484 0.0 10131564
18:00+22в35651 0.0 1013909
21:00+17всв310861 0.0 1017646
27 февраля, сб
сб2700:00+15в211920 0.0 1017709
03:00+16в298721 0.0 1017789
06:00+17в388295 0.0 1017879
09:00+18в398098 0.1 1018882
12:00+22в3666100 0.1 10171112
15:00+22вюв378277 1.4 1015966
18:00+19в39890 1.3 1016930
21:00+17вюв3128813 1.4 10181021
28 февраля, вс
вс2800:00+16в3128720 0.0 10181027
03:00+17в3108351 0.1 10161004
06:00+17вюв21091100 0.1 1016758
09:00+19в387899 0.1 1016836
12:00+21в2572100 0.0 1015794
15:00+22вюв358873 1.3 1012601
18:00+21вюв278711 2.5 1012854
21:00+17вюв2109620 2.6 1014620
1 марта, пн
пн100:00+16всв299644 0.0 1015480
03:00+18св179255 0.0 1013405
06:00+17всв1599100 1.4 1014265
09:00+18ссв159698 1.6 1014588
12:00+24с246194 0.1 10131151
15:00+24в119487 4.3 1010663
18:00+21ююв0096100 8.5 101023
21:00+17всв1298100 10.2 101235
2 марта, вт
вт200:00+17св29999 0.0 1013364
03:00+18ссв299840 0.0 1012488
06:00+17ссв129967 0.0 101387
09:00+22ссз277840 0.1 1014729
12:00+23з259235 4.7 1012761
15:00+23зюз129168 9.9 1011253
18:00+21юв0095100 2.8 101023
21:00+18ссв1298100 3.2 101326